Overview Statistics Trail Chart Weather Telemetry Raw packets
 

This is the latest recevied weather packets stored in our database for station/object 9A7DI-13. If no packets are shown the sender has not sent any weather packets the latest 10 day(s).

<< 41 42 43 44 45 46 47 >>
Time Temp. Humidity Pressure Rain* Wind** Luminosity Snow
1788033412 18.89° C 78% 1024.7 hPa - - - -
1788032812 19.44° C 76% 1024.8 hPa - - - -
1788032212 20° C 75% 1024.7 hPa - - - -
1788031612 20° C 74% 1024.6 hPa - - - -
1788031012 20.56° C 72% 1024.6 hPa - - - -
1788030412 21.11° C 69% 1024.5 hPa - - - -
1788029812 21.67° C 69% 1024.4 hPa - - - -
1788029212 21.67° C 68% 1024.3 hPa - - - -
1788028612 22.22° C 67% 1024.1 hPa - - - -
1788028012 22.22° C 66% 1024 hPa - - - -
1788027412 23.89° C 63% 1023.9 hPa - - - -
1788026812 23.89° C 62% 1023.9 hPa - - - -
1788026212 24.44° C 60% 1023.7 hPa - - - -
1788025612 25° C 59% 1023.6 hPa - - - -
1788025012 25° C 59% 1023.4 hPa - - - -
1788024412 25.56° C 56% 1023.4 hPa - - - -
1788023812 26.67° C 52% 1023.3 hPa - - - -
1788023212 26.67° C 50% 1023.2 hPa - - - -
1788022612 27.22° C 49% 1023.2 hPa - - - -
1788022013 27.22° C 47% 1023.3 hPa - - - -
1788021412 27.78° C 46% 1023.2 hPa - - - -
1788020812 27.78° C 45% 1023.2 hPa - - - -
1788020212 28.33° C 43% 1023.2 hPa - - - -
1788019612 28.33° C 42% 1023.4 hPa - - - -
1788019012 28.33° C 42% 1023.4 hPa - - - -

* Rain since midnight (hover to see other rain measurements)
** Current wind speed in m/s (hover to see current wind gust speed)